Location: Cabeza Gorda
(40.0667°N, 4.9667°W)
Time: 05:25:11
(UTC+00:00)

TIMED - Pass Details

Date: 15 January 2026
Orbit: 581 x 584 km, 74.1° (Epoch: 15 February)

Event Time Altitude Azimuth Distance (km) Brightness Sun altitude
Rises 05:55:10 0° 205° (SSW) 2,785 7.8 -19.7°
Reaches altitude 10° 05:57:23 10° 209° (SSW) 1,890 6.9 -19.3°
Maximum altitude 06:01:33 63° 290° (WNW) 653 4.3 -18.5°
Drops below altitude 10° 06:05:46 10° 12° (NNE) 1,905 7.1 -17.7°
Sets 06:08:01 0° 16° (NNE) 2,810 8.0 -17.3°
